Location: *
(49.5667°N, 1.3667°W)
Time: 15:35:33
(UTC+00:00)

Resurs 1-3 - Pass Details

Date: 20 September 2019
Orbit: 630 x 632 km, 98.0° (Epoch: 16 October)

Event Time Altitude Azimuth Distance (km) Brightness Sun altitude
Exits shadow 19:42:46 26° 131° (SE) 1,256 4.6 -15.7°
Maximum altitude 19:44:56 49° 70° (ENE) 820 3.8 -16.1°
Drops below altitude 10° 19:49:12 10° 356° (N) 2,026 6.5 -16.7°
Sets 19:51:27 0° 351° (N) 2,939 7.5 -17.0°
